| time (UTC) | temp F | wind direction | speed MPH | gust MPH | rain 1hr in | rain 24hr in | rain mn in | humidity % | barometer mb |
| 20260506033043 | 59 | 234 | 12.0 | 19.0 | 0.00 | 0.11 | 0.11 | 40 | 1015.3 |
| 20260506031546 | 59 | 241 | 10.0 | 15.0 | 0.00 | 0.11 | 0.11 | 40 | 1015.1 |
| 20260506030047 | 59 | 218 | 6.0 | 13.0 | 0.00 | 0.11 | 0.11 | 39 | 1015.0 |
| 20260506024557 | 60 | 206 | 4.0 | 10.0 | 0.00 | 0.11 | 0.11 | 39 | 1014.7 |
| 20260506023047 | 60 | 261 | 6.0 | 15.0 | 0.00 | 0.11 | 0.11 | 36 | 1014.6 |
| 20260506021544 | 61 | 242 | 7.0 | 16.0 | 0.00 | 0.11 | 0.11 | 37 | 1014.2 |
| 20260506020040 | 62 | 244 | 7.0 | 15.0 | 0.00 | 0.11 | 0.11 | 35 | 1013.9 |
| 20260506014543 | 63 | 268 | 14.0 | 21.0 | 0.00 | 0.11 | 0.11 | 35 | 1013.8 |
| 20260506013050 | 63 | 252 | 14.0 | 27.0 | 0.00 | 0.11 | 0.11 | 35 | 1013.7 |
| 20260506011540 | 64 | 252 | 15.0 | 29.0 | 0.00 | 0.11 | 0.11 | 34 | 1013.6 |
| 20260506010048 | 65 | 260 | 13.0 | 23.0 | 0.00 | 0.11 | 0.11 | 34 | 1013.4 |
| 20260506004541 | 66 | 222 | 17.0 | 25.0 | 0.00 | 0.11 | 0.11 | 36 | 1013.3 |
| 20260506003041 | 66 | 275 | 13.0 | 28.0 | 0.00 | 0.11 | 0.11 | 35 | 1013.1 |
| 20260506001541 | 66 | 232 | 18.0 | 28.0 | 0.00 | 0.11 | 0.11 | 35 | 1013.2 |
| 20260506000052 | 66 | 241 | 16.0 | 30.0 | 0.00 | 0.11 | 0.11 | 35 | 1013.1 |
| 20260505234551 | 67 | 259 | 17.0 | 28.0 | 0.00 | 0.11 | 0.11 | 36 | 1013.1 |
| 20260505233045 | 67 | 252 | 21.0 | 31.0 | 0.00 | 0.11 | 0.11 | 36 | 1012.9 |
| 20260505231554 | 68 | 268 | 16.0 | 32.0 | 0.00 | 0.11 | 0.11 | 35 | 1012.9 |
| 20260505230053 | 68 | 239 | 16.0 | 31.0 | 0.00 | 0.11 | 0.11 | 34 | 1012.9 |
| 20260505224541 | 68 | 217 | 18.0 | 30.0 | 0.00 | 0.11 | 0.11 | 36 | 1013.2 |
| 20260505223040 | 68 | 242 | 20.0 | 34.0 | 0.00 | 0.11 | 0.11 | 36 | 1013.3 |
| 20260505221540 | 67 | 179 | 24.0 | 41.0 | 0.00 | 0.11 | 0.11 | 36 | 1013.3 |
| 20260505220048 | 68 | 241 | 20.0 | 34.0 | 0.00 | 0.11 | 0.11 | 37 | 1013.5 |
| 20260505214544 | 67 | 271 | 23.0 | 34.0 | 0.00 | 0.11 | 0.11 | 37 | 1013.5 |
| 20260505213051 | 67 | 232 | 20.0 | 42.0 | 0.00 | 0.11 | 0.11 | 40 | 1013.7 |
| 20260505211544 | 67 | 247 | 19.0 | 38.0 | 0.00 | 0.11 | 0.11 | 41 | 1013.7 |
| 20260505210038 | 66 | 242 | 25.0 | 37.0 | 0.00 | 0.11 | 0.11 | 40 | 1013.9 |
| 20260505204540 | 65 | 254 | 24.0 | 34.0 | 0.00 | 0.11 | 0.11 | 45 | 1014.3 |
| 20260505203046 | 65 | 226 | 19.0 | 31.0 | 0.00 | 0.11 | 0.11 | 46 | 1014.2 |
| 20260505201546 | 66 | 262 | 20.0 | 30.0 | 0.00 | 0.11 | 0.11 | 48 | 1014.3 |
| 20260505200043 | 64 | 238 | 23.0 | 35.0 | 0.00 | 0.11 | 0.11 | 51 | 1014.5 |
| 20260505194540 | 64 | 246 | 20.0 | 31.0 | 0.00 | 0.11 | 0.11 | 52 | 1014.4 |
| 20260505193039 | 64 | 184 | 13.0 | 27.0 | 0.00 | 0.11 | 0.11 | 53 | 1014.3 |
| 20260505191548 | 64 | 223 | 12.0 | 29.0 | 0.00 | 0.11 | 0.11 | 55 | 1014.5 |
| 20260505190046 | 64 | 259 | 16.0 | 26.0 | 0.00 | 0.11 | 0.11 | 56 | 1014.9 |
| 20260505184542 | 64 | 231 | 17.0 | 29.0 | 0.00 | 0.11 | 0.11 | 55 | 1014.9 |
| 20260505183040 | 63 | 209 | 15.0 | 27.0 | 0.00 | 0.11 | 0.11 | 57 | 1015.0 |
| 20260505181548 | 62 | 223 | 21.0 | 28.0 | 0.00 | 0.11 | 0.11 | 58 | 1015.2 |
| 20260505180100 | 62 | 207 | 14.0 | 25.0 | 0.00 | 0.11 | 0.11 | 60 | 1015.1 |
| 20260505174554 | 62 | 230 | 13.0 | 28.0 | 0.00 | 0.11 | 0.11 | 61 | 1015.2 |
| 20260505173045 | 61 | 211 | 15.0 | 23.0 | 0.00 | 0.11 | 0.11 | 61 | 1015.1 |
| 20260505171544 | 60 | 222 | 15.0 | 26.0 | 0.00 | 0.11 | 0.11 | 63 | 1015.1 |
| 20260505170040 | 60 | 226 | 15.0 | 22.0 | 0.00 | 0.11 | 0.11 | 64 | 1015.1 |
| 20260505164542 | 60 | 253 | 12.0 | 24.0 | 0.00 | 0.11 | 0.11 | 66 | 1015.0 |
| 20260505163044 | 59 | 235 | 18.0 | 26.0 | 0.00 | 0.11 | 0.11 | 65 | 1015.0 |
| 20260505161545 | 59 | 219 | 9.0 | 21.0 | 0.00 | 0.11 | 0.11 | 68 | 1015.1 |
| 20260505153040 | 58 | 229 | 13.0 | 20.0 | 0.01 | 0.11 | 0.11 | 71 | 1014.9 |
| 20260505151547 | 56 | 234 | 7.0 | 11.0 | 0.01 | 0.11 | 0.11 | 82 | 1014.6 |
| 20260505124547 | 52 | 0 | 0.0 | 3.0 | 0.01 | 0.08 | 0.08 | 88 | 1013.9 |
| 20260505123048 | 53 | 51 | 0.0 | 3.0 | 0.02 | 0.08 | 0.08 | 88 | 1013.7 |
| 20260505121546 | 53 | 0 | 0.0 | 3.0 | 0.01 | 0.07 | 0.07 | 88 | 1013.7 |
| 20260505120041 | 53 | 0 | 0.0 | 4.0 | 0.02 | 0.07 | 0.07 | 88 | 1014.0 |
| 20260505114541 | 53 | 0 | 0.0 | 0.0 | 0.02 | 0.07 | 0.07 | 88 | 1013.9 |
| 20260505113052 | 52 | 36 | 1.0 | 5.0 | 0.01 | 0.06 | 0.06 | 87 | 1013.6 |
| 20260505111548 | 53 | 57 | 3.0 | 6.0 | 0.02 | 0.06 | 0.06 | 87 | 1013.8 |
| 20260505101604 | 52 | 317 | 1.0 | 4.0 | 0.03 | 0.04 | 0.04 | 85 | 1014.9 |
| 20260505100058 | 53 | 0 | 0.0 | 3.0 | 0.03 | 0.03 | 0.03 | 85 | 1015.3 |
| 20260505094551 | 53 | 240 | 3.0 | 6.0 | 0.02 | 0.02 | 0.02 | 84 | 1016.1 |
| 20260505093100 | 53 | 191 | 1.0 | 4.0 | 0.02 | 0.02 | 0.02 | 83 | 1015.9 |
| 20260505091545 | 53 | 187 | 1.0 | 4.0 | 0.01 | 0.01 | 0.01 | 82 | 1016.1 |
| 20260505090041 | 54 | 196 | 4.0 | 8.0 | 0.00 | 0.00 | 0.00 | 81 | 1016.6 |
| 20260505084542 | 55 | 258 | 5.0 | 12.0 | 0.00 | 0.00 | 0.00 | 77 | 1016.6 |
| 20260505083041 | 57 | 205 | 3.0 | 13.0 | 0.00 | 0.00 | 0.00 | 73 | 1016.8 |
| 20260505081559 | 59 | 265 | 9.0 | 17.0 | 0.00 | 0.00 | 0.00 | 67 | 1017.2 |
| 20260505080057 | 60 | 271 | 6.0 | 10.0 | 0.00 | 0.00 | 0.00 | 56 | 1016.8 |
| 20260505074545 | 60 | 272 | 3.0 | 7.0 | 0.00 | 0.00 | 0.00 | 55 | 1016.6 |
| 20260505073041 | 60 | 259 | 6.0 | 12.0 | 0.00 | 0.00 | 0.00 | 54 | 1017.1 |
| 20260505071550 | 60 | 241 | 7.0 | 15.0 | 0.00 | 0.00 | 0.00 | 54 | 1016.8 |
| 20260505070047 | 61 | 264 | 9.0 | 16.0 | 0.00 | 0.00 | 0.00 | 53 | 1017.2 |
| 20260505064547 | 61 | 240 | 11.0 | 18.0 | 0.00 | 0.00 | 0.00 | 52 | 1017.4 |
| 20260505063050 | 61 | 246 | 10.0 | 17.0 | 0.00 | 0.00 | 0.00 | 53 | 1017.2 |
| 20260505061545 | 61 | 241 | 11.0 | 18.0 | 0.00 | 0.00 | 0.00 | 53 | 1017.2 |
| 20260505060044 | 61 | 219 | 9.0 | 16.0 | 0.00 | 0.00 | 0.00 | 50 | 1017.1 |
| 20260505054548 | 61 | 225 | 10.0 | 16.0 | 0.00 | 0.00 | 0.00 | 49 | 1017.4 |
| 20260505053045 | 62 | 229 | 8.0 | 16.0 | 0.00 | 0.00 | 0.00 | 48 | 1017.4 |
| 20260505051548 | 62 | 227 | 7.0 | 17.0 | 0.00 | 0.00 | 0.00 | 48 | 1017.2 |
| 20260505041540 | 61 | 213 | 5.0 | 10.0 | 0.00 | 0.00 | 0.00 | 46 | 1017.1 |
| 20260505040040 | 61 | 0 | 0.0 | 5.0 | 0.00 | 0.00 | 0.00 | 46 | 1016.8 |
| 20260505034550 | 61 | 38 | 5.0 | 10.0 | 0.00 | 0.00 | 0.00 | 44 | 1016.7 |